Regional Weather Roundup
Issued by NWS

Home | Current Version | Previous Version | Graphics & Text | Print | Product List | Glossary On
Versions: 1 2 3 4 5 6 7 8 9 10 11 12 13 14 15 16 17 18 19 20 21 22 23 24 25 26 27 28
000
ASUS45 KTFX 191010
RWRMT
MONTANA REGIONAL WEATHER ROUNDUP
NATIONAL WEATHER SERVICE GREAT FALLS MT
300 AM MST SUN NOV 19 2017

NOTE: "FAIR" INDICATES FEW OR NO CLOUDS BELOW 12000 FEET WITH NO
SIGNIFICANT WEATHER AND/OR OBSTRUCTIONS TO VISIBILITY.

MTZ001>007-043-191100-
WEST OF THE DIVIDE

CITY           SKY/WX    TMP DP  RH WIND       PRES   REMARKS
KALISPELL      FAIR      23  22  96 CALM      30.09F
MISSOULA       FAIR      25  21  85 CALM      30.14F
BUTTE          FAIR      10   4  76 VRB3      30.10F
MULLAN PASS    FAIR      22  18  85 S8        30.02F WCI  12
ANACONDA         N/A     28  10  47 SW10      30.08S WCI  19
EUREKA           N/A     30  23  74 MISG      30.08F
HAMILTON         N/A     34  16  47 S7          N/A  WCI  28
LIBBY            N/A     23  21  93 CALM      30.10F
PLAINS           N/A     24  19  81 CALM      30.13F
RONAN            N/A     27  22  81 CALM      30.12F
$$

MTZ008-052>055-191100-
SOUTHWEST MONTANA

CITY           SKY/WX    TMP DP  RH WIND       PRES   REMARKS
BOZEMAN        FAIR      16  10  77 CALM      30.13F
DILLON         FAIR      25  17  72 SW12      30.15F WCI  14
W YELLOWSTONE  CLOUDY    14  12  92 CALM      30.26S
ENNIS          CLOUDY    27  18  69 S20G26    30.20F WCI  13
TWIN BRIDGES     N/A     24  12  60 CALM      30.12F
$$

MTZ009-010-012-014-046-048-049-054-191100-
EAST SLOPES AND CENTRAL MONTANA

CITY           SKY/WX    TMP DP  RH WIND       PRES   REMARKS
CUT BANK       FAIR      35  17  47 W21       29.87F WCI  24
GREAT FALLS    FAIR      39  14  36 SW24G36   29.93S WCI  28
MALMSTROM AFB  CLOUDY    40  15  36 SW23G32   29.93F
HELENA         FAIR      27  19  72 CALM      30.08F
BOWMANS CRNR   FAIR      32  15  50 S25       29.93F WCI  18
CHOTEAU          N/A     34  16  47 S14G20    29.93F WCI  24
FAIRFIELD      FAIR      35  14  41 S22G30    29.92F WCI  24
POWER          MOCLDY    37  13  37 SW28G37   29.92F WCI  25
RAYNESFORD     CLOUDY    47  10  22 SW30G40   29.90F
ULM            FAIR      37  15  39 S21       29.98F WCI  27
$$

MTZ011-013-016-021-045-047-050-051-191100-
NORTH CENTRAL MONTANA

CITY           SKY/WX    TMP DP  RH WIND       PRES   REMARKS
HAVRE          FAIR      33  22  63 SW8       29.90F WCI  26
LEWISTOWN      FAIR      28  16  60 W5        29.93F
N BAR RANCH    FAIR      27  12  54 CALM      29.97F
CHINOOK          N/A     30  21  69 N3        29.91F
DENTON         FAIR      40  14  34 SW8G22    29.88F
GEYSER         MOCLDY    42  13  31 W12       29.91F
GRASS RANGE    FAIR      36  13  39 W13       29.90F WCI  27
STANFORD       MOCLDY    43  11  28 W24       29.91F
WINIFRED       FAIR      34  15  46 W8        29.91F WCI  27
$$

MTZ017>020-022>027-061-062-191100-
NORTHEAST MONTANA

CITY           SKY/WX    TMP DP  RH WIND       PRES   REMARKS
GLASGOW        FAIR      26  19  74 W6        29.91F WCI  19
GLENDIVE       FAIR      30  22  72 W10       29.95F WCI  21
JORDAN           N/A     28  21  75 NW9       29.94F WCI  19
SIDNEY         FAIR      23  19  85 SE3       29.94F
WOLF POINT     FAIR      23  18  81 CALM      29.94F
MALTA          CLEAR     18  16  93 CALM      29.92F
PLENTYWOOD       N/A     27  19  74 CALM      29.88F
POPLAR           N/A     21  18  86 CALM      29.93F
SCOBEY           N/A     25  12  57 W5        29.87F
$$

MTZ028>42-056>058-191100-
SOUTHCENTRAL AND SOUTHEAST MONTANA

CITY           SKY/WX    TMP DP  RH WIND       PRES   REMARKS
BAKER          FAIR      28  20  71 SW10      29.98F WCI  19
BILLINGS       FAIR      38  15  39 W23       29.99F WCI  27
LIVINGSTON     FAIR      35  17  47 W33G53    30.02F WCI  21
MILES CITY     FAIR      31  21  66 SW6       29.98F WCI  25
BIG TIMBER     CLEAR     37  14  38 W29G41    30.01F WCI  25
EKALAKA          N/A     31  14  49 SW5       29.96F
FORSYTH          N/A     36  18  48 CALM      29.98F
HARLOWTON      MOCLDY    36  18  46 W36G45    29.96R WCI  22
LAUREL           N/A     37  14  38 SW15G21   30.01F WCI  28
$$

REGIONAL REPORTS...DAKOTAS

CITY           SKY/WX    TMP DP  RH WIND       PRES   REMARKS
WILLISTON      FAIR      21  18  88 SW6       29.92F WCI  13
MINOT          FAIR      26  20  77 S7        29.88F WCI  18
DICKINSON      FAIR      30  20  66 SW15      29.93F WCI  19
BEACH          FAIR      28  21  74 SW12      29.98F WCI  18
CROSBY         FAIR      27  21  80 SW13      29.87F WCI  16
TIOGA          FAIR      27  25  93 SW12      29.90F WCI  16
BISMARCK       FAIR      26  21  81 CALM      29.99F
GRAND FORKS    FAIR      12   8  84 SW6       30.00F WCI   3
FARGO          FAIR      12   8  84 S6        30.02F WCI   3
BUFFALO SD       N/A     28  18  66 W12       29.93F WCI  18
RAPID CITY     FAIR      23  14  68 CALM      30.06F
$$

REGIONAL REPORTS...WYOMING/IDAHO/WASHINGTON

CITY           SKY/WX    TMP DP  RH WIND       PRES   REMARKS
GILLETTE       FAIR      33  17  51 SW18      30.02F WCI  22
SHERIDAN       FAIR      22  17  81 CALM      30.01F
BUFFALO WY     FAIR      31  13  47 CALM      30.03F
CODY           FAIR      29  16  58 VRB6      30.08F WCI  23
YELLOWSTONE LA   N/A     16  13  88 W3        30.26S
IDAHO FALLS    FAIR      21  19  92 N6        30.31F WCI  13
SALMON         FAIR      24  19  81 CALM      30.26F
BOISE          FAIR      34  22  61 SE8       30.22F WCI  27
SPOKANE        CLOUDY    33  29  85 SE5       30.07F
$$

REGIONAL REPORTS...ALBERTA

CITY           SKY/WX    TMP DP  RH WIND       PRES   REMARKS
EDMONTON       PTCLDY    18  12  79 E5        29.68
CALGARY        MOCLDY    34  16  47 S9        29.70F WCI  26
LETHBRIDGE     PTCLDY    36  19  51 W23G30    29.80F WCI  24
MEDICINE HAT   CLEAR     25  19  80 SW7       29.81F WCI  17
$$

REGIONAL REPORTS...SASKATCHEWAN

CITY           SKY/WX    TMP DP  RH WIND       PRES   REMARKS
SWIFT CURRENT  CLEAR     28  19  69 W20       29.80F WCI  15
REGINA         PTCLDY    18  14  86 S5        29.82S
SASKATOON      MOCLDY     9   5  85 SW3       29.82S
$$




USA.gov is the U.S. government's official web portal to all federal, state and local government web resources and services.